DW6440 Weather Reports


Display with metric or nautical units.
time (UTC)temp
F
wind
direction
speed
MPH
gust
MPH
rain 1hr
in
rain 24hr
in
rain mn
in
humidity
%
barometer
mb
20260905145525 76 313 6.0 14.0 0.00 0.00 0.00 71 1012.1
20260905145023 76 332 5.0 12.0 0.00 0.00 0.00 75 1012.0
20260905144523 76 237 3.0 12.0 0.00 0.00 0.00 72 1012.0
20260905144021 75 11 2.0 7.0 0.00 0.00 0.00 75 1012.0
20260905143522 75 11 3.0 8.0 0.00 0.00 0.00 71 1012.0
20260905143021 75 12 3.0 8.0 0.00 0.00 0.00 73 1011.9
20260905142523 74 342 3.0 6.0 0.00 0.00 0.00 75 1011.9
20260905142020 74 331 2.0 6.0 0.00 0.00 0.00 73 1012.0
20260905141521 74 331 3.0 8.0 0.00 0.00 0.00 76 1012.1
20260905141024 73 264 3.0 8.0 0.00 0.00 0.00 75 1012.1
20260905140522 74 9 1.0 8.0 0.00 0.00 0.00 77 1012.1
20260905140020 73 296 1.0 5.0 0.00 0.00 0.00 78 1012.2
20260905135523 73 264 0.0 5.0 0.00 0.00 0.00 78 1012.2
20260905135022 73 344 0.0 3.0 0.00 0.00 0.00 79 1012.1
20260905134735 73 344 0.0 6.0 0.00 0.00 0.00 79 1012.1
20260905134620 73 344 0.0 3.0 0.00 0.00 0.00 80 1012.1
20260905133520 73 344 1.0 6.0 0.00 0.00 0.00 79 1012.1
20260905133021 72 348 2.0 8.0 0.00 0.00 0.00 78 1012.0
20260905132520 73 335 2.0 8.0 0.00 0.00 0.00 77 1012.0
20260905132249 73 329 2.0 5.0 0.00 0.00 0.00 79 1011.9
20260905131524 73 333 1.0 5.0 0.00 0.00 0.00 80 1011.9
20260905131022 73 333 1.0 5.0 0.00 0.00 0.00 78 1011.8
20260905130522 73 341 1.0 4.0 0.00 0.00 0.00 79 1011.7
20260905130020 73 5 1.0 3.0 0.00 0.00 0.00 81 1011.8
20260905125521 72 324 1.0 3.0 0.00 0.00 0.00 80 1011.7
20260905125021 72 324 2.0 4.0 0.00 0.00 0.00 82 1011.7
20260905124523 72 328 2.0 4.0 0.00 0.00 0.00 81 1011.8
20260905124021 72 9 1.0 7.0 0.00 0.00 0.00 82 1011.8
20260905123520 72 9 1.0 7.0 0.00 0.00 0.00 82 1011.7
20260905123021 71 323 1.0 3.0 0.00 0.00 0.00 84 1011.8
20260905122520 71 323 1.0 4.0 0.00 0.00 0.00 85 1011.9
20260905122253 71 323 0.0 4.0 0.00 0.00 0.00 85 1012.0
20260905121526 71 316 0.0 2.0 0.00 0.00 0.00 87 1011.9
20260905121021 71 316 0.0 2.0 0.00 0.00 0.00 88 1011.9
20260905120745 71 316 0.0 2.0 0.00 0.00 0.00 88 1011.9
20260905120023 71 316 0.0 1.0 0.00 0.00 0.00 89 1011.8
20260905115518 71 316 0.0 1.0 0.00 0.00 0.00 89 1011.8
20260905115023 71 316 0.0 1.0 0.00 0.00 0.00 89 1011.8
20260905114738 71 316 0.0 0.0 0.00 0.00 0.00 89 1011.7
20260905114013 71 316 0.0 0.0 0.00 0.00 0.00 89 1011.6
20260905113510 71 316 0.0 0.0 0.00 0.00 0.00 90 1011.7
20260905113008 70 65 0.0 0.0 0.00 0.00 0.00 90 1011.7
20260905112752 70 66 0.0 0.0 0.00 0.00 0.00 90 1011.6
20260905112011 70 66 0.0 0.0 0.00 0.00 0.00 90 1011.5
20260905111509 70 355 0.0 0.0 0.00 0.00 0.00 90 1011.4
20260905111235 70 355 0.0 0.0 0.00 0.00 0.00 90 1011.4
20260905110509 70 355 0.0 0.0 0.00 0.00 0.00 90 1011.4
20260905110234 70 355 0.0 0.0 0.00 0.00 0.00 90 1011.3
20260905105508 70 355 0.0 0.0 0.00 0.00 0.00 90 1011.5
20260905105008 70 355 0.0 0.0 0.00 0.00 0.00 90 1011.4
20260905104727 70 355 0.0 0.0 0.00 0.00 0.00 90 1011.3
20260905104006 70 355 0.0 0.0 0.00 0.00 0.00 90 1011.2
20260905103505 70 355 0.0 0.0 0.00 0.00 0.00 90 1011.1
20260905103004 70 355 0.0 0.0 0.00 0.00 0.00 89 1011.0
20260905102504 70 355 0.0 0.0 0.00 0.00 0.00 89 1010.9
20260905102007 70 355 0.0 0.0 0.00 0.00 0.00 88 1010.9
20260905101503 70 355 0.0 0.0 0.00 0.00 0.00 88 1010.7
20260905100957 71 355 0.0 0.0 0.00 0.00 0.00 89 1010.6
20260905100506 71 355 0.0 0.0 0.00 0.00 0.00 89 1010.6
20260905095951 71 355 0.0 0.0 0.00 0.00 0.00 89 1010.6
20260905095709 71 355 0.0 0.0 0.00 0.00 0.00 89 1010.7
20260905094951 71 355 0.0 3.0 0.00 0.00 0.00 90 1010.7
20260905094707 71 355 0.0 3.0 0.00 0.00 0.00 91 1010.6
20260905093950 71 350 0.0 2.0 0.00 0.00 0.00 92 1010.6
20260905093449 71 350 1.0 3.0 0.00 0.00 0.00 92 1010.6
20260905093211 71 350 0.0 3.0 0.00 0.00 0.00 92 1010.6
20260905092443 71 349 0.0 0.0 0.00 0.00 0.00 93 1010.6
20260905091943 71 349 0.0 0.0 0.00 0.00 0.00 93 1010.6
20260905091700 71 349 0.0 0.0 0.00 0.00 0.00 93 1010.6
20260905090946 71 349 0.0 0.0 0.00 0.00 0.00 93 1010.6
20260905090441 71 349 0.0 0.0 0.00 0.00 0.00 93 1010.7
20260905085939 71 349 0.0 0.0 0.00 0.00 0.00 93 1010.7
20260905085437 71 349 0.0 0.0 0.00 0.00 0.00 93 1010.8
20260905084936 71 349 0.0 0.0 0.00 0.00 0.00 93 1010.7
20260905084437 71 349 0.0 0.0 0.00 0.00 0.00 93 1010.7
20260905083937 71 349 0.0 0.0 0.00 0.00 0.00 93 1010.7
20260905083442 71 349 0.0 0.0 0.00 0.00 0.00 93 1010.6
20260905083419 71 349 0.0 0.0 0.00 0.00 0.00 93 1010.5
20260905082656 71 349 0.0 0.0 0.00 0.00 0.00 93 1010.6
20260905081934 71 349 0.0 0.0 0.00 0.00 0.00 93 1010.5
20260905081656 71 349 0.0 0.0 0.00 0.00 0.00 93 1010.5
20260905080930 71 349 0.0 0.0 0.00 0.00 0.00 93 1010.6
20260905080433 71 349 0.0 0.0 0.00 0.00 0.00 93 1010.5
20260905080424 71 349 0.0 0.0 0.00 0.00 0.00 93 1010.6
20260905075429 71 349 0.0 0.0 0.00 0.00 0.00 93 1010.6
20260905074926 71 349 0.0 0.0 0.00 0.00 0.00 93 1010.6
20260905074907 70 349 0.0 0.0 0.00 0.00 0.00 93 1010.6
20260905073926 70 349 0.0 0.0 0.00 0.00 0.00 93 1010.6
20260905073424 71 349 0.0 0.0 0.00 0.00 0.00 93 1010.6
20260905073150 71 349 0.0 0.0 0.00 0.00 0.00 93 1010.5
20260905072423 71 349 0.0 0.0 0.00 0.00 0.00 93 1010.5
20260905071924 71 349 0.0 0.0 0.00 0.00 0.00 93 1010.6
20260905071421 71 349 0.0 0.0 0.00 0.00 0.00 93 1010.7
20260905070924 71 349 0.0 0.0 0.00 0.00 0.00 93 1010.7
20260905070426 71 349 0.0 0.0 0.00 0.00 0.00 93 1010.8
20260905070140 71 349 0.0 0.0 0.00 0.00 0.00 93 1010.8
20260905065421 71 349 0.0 0.0 0.00 0.00 0.00 93 1010.8
20260905064917 72 349 0.0 0.0 0.00 0.00 0.00 93 1010.7
20260905064416 72 349 0.0 0.0 0.00 0.00 0.00 93 1010.7
20260905063915 72 349 0.0 0.0 0.00 0.00 0.00 93 1010.8
20260905063650 72 349 0.0 0.0 0.00 0.00 0.00 93 1010.8
20260905062916 71 349 0.0 0.0 0.00 0.00 0.00 93 1010.8
20260905062414 72 349 0.0 0.0 0.00 0.00 0.00 93 1010.8
20260905061914 72 349 0.0 0.0 0.00 0.00 0.00 93 1010.7
20260905061414 72 349 0.0 0.0 0.00 0.00 0.00 93 1010.8
20260905060917 72 349 0.0 0.0 0.00 0.00 0.00 93 1010.9
20260905060413 72 349 0.0 0.0 0.00 0.00 0.00 93 1010.9
20260905055916 72 349 0.0 0.0 0.00 0.00 0.00 93 1011.0
20260905055416 72 349 0.0 0.0 0.00 0.00 0.00 93 1011.1
20260905054917 72 349 0.0 0.0 0.00 0.00 0.00 93 1011.1
20260905054416 72 349 0.0 0.0 0.00 0.00 0.00 93 1011.2
20260905054139 72 349 0.0 0.0 0.00 0.00 0.00 93 1011.3
20260905053637 72 349 0.0 0.0 0.00 0.00 0.00 93 1011.3
20260905052914 72 349 0.0 0.0 0.00 0.00 0.00 93 1011.3
20260905052412 72 349 0.0 0.0 0.00 0.00 0.00 92 1011.2
20260905052148 72 349 0.0 0.0 0.00 0.00 0.00 92 1011.2
20260905051412 72 349 0.0 0.0 0.00 0.00 0.00 92 1011.2
20260905050912 72 349 0.0 0.0 0.00 0.00 0.00 92 1011.2
20260905050411 72 349 0.0 0.0 0.00 0.00 0.00 92 1011.2
20260905045910 73 349 0.0 0.0 0.00 0.00 0.00 92 1011.2
20260905045411 73 349 0.0 0.0 0.00 0.00 0.00 92 1011.2
20260905044912 73 349 0.0 0.0 0.00 0.00 0.00 92 1011.3
20260905044412 73 349 0.0 0.0 0.00 0.00 0.00 92 1011.3
20260905043913 73 349 0.0 0.0 0.00 0.00 0.00 92 1011.5
20260905043636 73 349 0.0 0.0 0.00 0.00 0.00 91 1011.5
20260905042910 74 349 0.0 0.0 0.00 0.00 0.00 91 1011.5
20260905042409 74 349 0.0 0.0 0.00 0.00 0.00 92 1011.6
20260905041911 74 349 0.0 1.0 0.00 0.00 0.00 92 1011.6
20260905041408 74 349 0.0 4.0 0.00 0.00 0.00 92 1011.6
20260905041130 74 349 0.0 4.0 0.00 0.00 0.00 92 1011.7
20260905040405 74 330 0.0 0.0 0.00 0.00 0.00 92 1011.6
20260905035906 74 330 0.0 0.0 0.00 0.00 0.00 92 1011.7
20260905035626 74 330 0.0 0.0 0.00 0.00 0.00 92 1011.6
20260905034858 74 330 0.0 0.0 0.00 0.00 0.00 92 1011.5
20260905034351 74 330 0.0 0.0 0.00 0.00 0.00 92 1011.5
20260905034112 74 330 0.0 0.0 0.00 0.00 0.00 92 1011.4
20260905033348 74 330 0.0 0.0 0.00 0.00 0.00 92 1011.6
20260905032847 74 330 0.0 0.0 0.00 0.00 0.00 92 1011.6
20260905032347 74 330 0.0 0.0 0.00 0.00 0.00 92 1011.6
20260905031845 74 330 0.0 0.0 0.00 0.00 0.00 92 1011.5
20260905031345 74 330 0.0 0.0 0.00 0.00 0.00 92 1011.5
20260905030844 74 330 0.0 0.0 0.00 0.02 0.00 92 1011.5
20260905030608 74 330 0.0 0.0 0.00 0.05 0.00 92 1011.5
20260905025846 74 330 0.0 0.0 0.00 0.05 0.00 92 1011.4
20260905025347 74 330 0.0 0.0 0.00 0.05 0.00 92 1011.5
20260905024841 74 330 0.0 0.0 0.00 0.05 0.00 92 1011.5
20260905024343 74 330 0.0 0.0 0.00 0.05 0.00 92 1011.4
20260905023847 74 330 0.0 0.0 0.00 0.05 0.00 92 1011.5
20260905023345 74 330 0.0 0.0 0.00 0.05 0.00 92 1011.3
20260905022848 74 330 0.0 0.0 0.00 0.05 0.00 92 1011.4
20260905022344 74 330 0.0 0.0 0.00 0.05 0.00 91 1011.5
20260905021843 74 330 0.0 0.0 0.00 0.05 0.00 91 1011.4
20260905021341 74 330 0.0 1.0 0.00 0.05 0.00 91 1011.4
20260905021038 75 330 0.0 1.0 0.00 0.05 0.00 91 1011.2
20260905020936 75 330 0.0 1.0 0.00 0.05 0.00 91 1011.3
20260905015840 75 330 0.0 0.0 0.00 0.05 0.00 91 1011.3
20260905015606 75 330 0.0 0.0 0.00 0.05 0.00 91 1011.3
20260905014837 75 330 0.0 0.0 0.00 0.05 0.00 91 1011.2
20260905014337 75 330 0.0 0.0 0.00 0.05 0.00 91 1011.2
20260905013836 75 330 0.0 0.0 0.00 0.05 0.00 90 1011.4
20260905013336 75 330 0.0 0.0 0.00 0.05 0.00 90 1011.3
20260905013107 75 330 0.0 0.0 0.00 0.05 0.00 90 1011.3
20260905012335 75 330 0.0 1.0 0.00 0.05 0.00 90 1011.3
20260905011836 76 330 0.0 1.0 0.00 0.05 0.00 90 1011.3
20260905011338 76 330 0.0 0.0 0.00 0.05 0.00 90 1011.3
20260905011058 76 330 0.0 0.0 0.00 0.05 0.00 90 1011.2
20260905010335 76 330 0.0 0.0 0.00 0.05 0.00 89 1011.2
20260905005835 76 330 0.0 0.0 0.00 0.05 0.00 89 1011.3
20260905005336 76 330 0.0 0.0 0.00 0.05 0.00 89 1011.3
20260905004838 76 330 0.0 0.0 0.00 0.05 0.00 89 1011.3
20260905004335 76 330 0.0 0.0 0.00 0.05 0.00 89 1011.3
20260905003836 76 330 0.0 0.0 0.00 0.05 0.00 89 1011.3
20260905003337 76 330 0.0 0.0 0.00 0.05 0.00 89 1011.3
20260905003329 77 330 0.0 0.0 0.00 0.05 0.00 89 1011.3
20260905002334 77 330 0.0 1.0 0.00 0.05 0.00 88 1011.2
20260905001829 77 330 0.0 1.0 0.00 0.05 0.00 88 1011.0
20260905001541 77 330 0.0 1.0 0.00 0.05 0.00 88 1010.9
20260905000817 76 330 0.0 0.0 0.00 0.05 0.00 87 1010.9
20260905000312 76 330 0.0 0.0 0.00 0.05 0.00 87 1011.1
20260904235806 77 330 0.0 0.0 0.00 0.05 0.00 87 1011.0
20260904235542 77 330 0.0 0.0 0.00 0.05 0.00 87 1011.1
20260904234803 77 330 0.0 0.0 0.00 0.05 0.00 87 1011.2
20260904234301 77 330 0.0 0.0 0.00 0.05 0.00 87 1011.2
20260904234031 78 330 0.0 0.0 0.00 0.05 0.00 87 1011.2
20260904233300 78 330 0.0 0.0 0.00 0.05 0.00 86 1011.0
20260904233024 78 330 0.0 0.0 0.00 0.05 0.00 85 1011.0
20260904232257 78 330 0.0 0.0 0.00 0.05 0.00 84 1011.0
20260904231756 79 330 0.0 0.0 0.00 0.05 0.00 84 1011.0
20260904231256 79 330 0.0 0.0 0.00 0.05 0.00 83 1011.0
20260904230755 80 330 0.0 0.0 0.00 0.05 0.00 81 1010.8
20260904230253 80 330 0.0 0.0 0.00 0.05 0.00 80 1010.9
20260904225758 80 330 0.0 0.0 0.00 0.05 0.00 80 1010.8
20260904225255 80 330 0.0 0.0 0.00 0.05 0.00 80 1011.0
20260904225028 81 330 0.0 0.0 0.00 0.05 0.00 79 1011.2
20260904224249 81 330 0.0 0.0 0.00 0.05 0.00 77 1011.2
20260904223749 81 330 0.0 0.0 0.00 0.05 0.00 76 1011.2
20260904223249 82 330 0.0 0.0 0.00 0.05 0.00 74 1011.2
20260904222747 82 330 0.0 0.0 0.00 0.05 0.00 75 1011.3
20260904222245 82 330 0.0 0.0 0.00 0.05 0.00 74 1011.3
20260904221745 83 330 0.0 2.0 0.00 0.05 0.00 74 1011.3
20260904221241 82 330 0.0 2.0 0.00 0.05 0.00 76 1011.2
20260904220742 83 331 0.0 4.0 0.00 0.05 0.00 74 1011.2
20260904220253 83 331 1.0 4.0 0.00 0.05 0.00 73 1011.2
20260904215739 84 196 1.0 3.0 0.00 0.05 0.00 72 1011.3
20260904215239 84 196 1.0 4.0 0.00 0.05 0.00 72 1011.3
20260904214737 83 196 1.0 4.0 0.00 0.05 0.00 71 1011.5
20260904214235 83 192 1.0 3.0 0.00 0.05 0.00 72 1011.5
20260904213734 83 192 1.0 3.0 0.00 0.05 0.00 71 1011.5
20260904213456 84 192 1.0 3.0 0.00 0.05 0.00 70 1011.6
20260904212736 84 192 2.0 3.0 0.00 0.05 0.00 70 1011.7
20260904212234 84 192 2.0 4.0 0.00 0.05 0.00 70 1011.7
20260904211735 84 190 2.0 4.0 0.00 0.05 0.00 69 1011.7
20260904211236 83 301 1.0 3.0 0.00 0.05 0.00 69 1011.9
20260904211000 83 323 0.0 2.0 0.00 0.05 0.00 71 1011.8
20260904210715 83 323 0.0 3.0 0.00 0.05 0.00 72 1011.8
20260904205734 83 323 1.0 3.0 0.00 0.05 0.00 70 1011.8
20260904205231 83 323 1.0 6.0 0.00 0.05 0.00 71 1011.9
20260904204733 83 323 2.0 6.0 0.00 0.05 0.00 71 1011.8
20260904204719 83 323 2.0 5.0 0.00 0.05 0.00 71 1011.8
20260904203728 83 309 2.0 6.0 0.00 0.05 0.00 70 1011.6
20260904203231 83 275 2.0 6.0 0.00 0.05 0.00 69 1011.6
20260904202727 84 332 2.0 10.0 0.00 0.05 0.00 67 1011.6
20260904202229 85 330 3.0 10.0 0.00 0.05 0.00 65 1011.5
20260904201727 86 315 2.0 6.0 0.00 0.05 0.00 65 1011.5
20260904201504 85 346 3.0 10.0 0.00 0.05 0.00 67 1011.5
20260904200726 85 14 3.0 10.0 0.00 0.05 0.00 65 1011.5
20260904200450 85 253 3.0 9.0 0.00 0.05 0.00 66 1011.5
20260904195731 85 315 4.0 13.0 0.00 0.05 0.00 68 1011.6
20260904195227 85 306 3.0 13.0 0.00 0.05 0.00 66 1011.7
20260904194727 85 304 2.0 9.0 0.00 0.05 0.00 66 1011.9
20260904194712 85 331 2.0 9.0 0.00 0.05 0.00 68 1012.0
20260904193728 84 272 1.0 4.0 0.00 0.05 0.00 69 1012.0
20260904193226 84 329 2.0 9.0 0.00 0.05 0.00 69 1012.2
20260904192723 83 329 3.0 9.0 0.00 0.05 0.00 70 1012.2
20260904192224 84 325 3.0 7.0 0.00 0.05 0.00 71 1012.3
20260904191947 83 313 3.0 7.0 0.00 0.05 0.00 67 1012.5
20260904191224 84 325 3.0 5.0 0.00 0.05 0.00 68 1012.5
20260904190723 84 325 3.0 12.0 0.00 0.05 0.00 68 1012.5
20260904190216 84 267 4.0 12.0 0.00 0.05 0.00 66 1012.6
20260904185936 85 270 4.0 10.0 0.00 0.05 0.00 68 1012.7
20260904185203 84 317 4.0 12.0 0.00 0.05 0.00 67 1012.7
20260904184701 85 310 4.0 12.0 0.00 0.05 0.00 66 1012.7
20260904184200 85 269 4.0 10.0 0.00 0.05 0.00 66 1012.8
20260904183654 86 67 4.0 10.0 0.00 0.05 0.00 64 1012.8
20260904183152 86 278 3.0 9.0 0.00 0.05 0.00 68 1012.8
20260904182655 86 248 3.0 8.0 0.00 0.05 0.00 66 1012.8
20260904182154 85 328 3.0 7.0 0.00 0.05 0.00 65 1012.9
20260904181651 85 336 4.0 10.0 0.00 0.05 0.00 66 1012.9
20260904181414 85 0 4.0 10.0 0.00 0.05 0.00 72 1013.0
20260904180651 85 18 3.0 8.0 0.00 0.05 0.00 68 1012.9
20260904180155 85 247 3.0 8.0 0.00 0.05 0.00 69 1012.9
20260904175650 84 269 3.0 8.0 0.00 0.05 0.00 70 1012.9
20260904175150 83 217 2.0 7.0 0.00 0.05 0.00 71 1013.0
20260904174650 84 261 2.0 8.0 0.00 0.05 0.00 69 1013.0
20260904174150 84 253 3.0 11.0 0.00 0.05 0.00 72 1013.0
20260904173653 83 334 3.0 11.0 0.00 0.05 0.00 69 1013.1
20260904173152 83 331 4.0 9.0 0.00 0.05 0.00 72 1013.0
20260904172922 83 331 4.0 9.0 0.00 0.05 0.00 69 1013.0
20260904172148 84 5 4.0 11.0 0.00 0.05 0.00 68 1013.1
20260904171644 84 345 4.0 11.0 0.00 0.05 0.00 70 1013.2
20260904171142 83 304 3.0 9.0 0.00 0.05 0.00 69 1013.2
20260904170639 83 250 3.0 9.0 0.00 0.05 0.00 73 1013.3
20260904170140 83 338 3.0 8.0 0.00 0.05 0.00 71 1013.3
20260904165638 84 315 3.0 8.0 0.00 0.05 0.00 71 1013.2
20260904165403 84 322 3.0 10.0 0.00 0.05 0.00 70 1013.1
20260904164635 84 355 3.0 10.0 0.00 0.05 0.00 74 1013.2
20260904164616 83 248 2.0 9.0 0.00 0.05 0.00 72 1013.2
20260904163635 83 321 3.0 9.0 0.00 0.05 0.00 71 1013.3
20260904163400 82 333 3.0 9.0 0.00 0.05 0.00 72 1013.3
20260904162633 82 219 3.0 9.0 0.00 0.05 0.00 71 1013.3
20260904162131 83 246 3.0 7.0 0.00 0.05 0.00 70 1013.4
20260904161632 83 306 3.0 9.0 0.00 0.05 0.00 72 1013.4
20260904161136 82 263 5.0 11.0 0.00 0.05 0.00 71 1013.4
20260904160631 82 0 6.0 13.0 0.00 0.05 0.00 71 1013.3
20260904160354 82 20 6.0 13.0 0.00 0.05 0.00 72 1013.3
20260904155632 82 5 5.0 11.0 0.00 0.05 0.00 71 1013.4
20260904155134 82 355 5.0 12.0 0.00 0.05 0.00 71 1013.4
20260904154631 82 317 6.0 12.0 0.00 0.05 0.00 70 1013.5
20260904154128 82 349 4.0 12.0 0.00 0.05 0.00 73 1013.5
20260904153628 82 236 4.0 10.0 0.00 0.05 0.00 71 1013.6
20260904153349 82 355 5.0 10.0 0.00 0.05 0.00 71 1013.6
20260904152630 82 273 4.0 9.0 0.00 0.05 0.00 73 1013.5
20260904152411 82 338 5.0 15.0 0.00 0.05 0.00 71 1013.5
20260904151629 82 329 6.0 15.0 0.00 0.05 0.00 73 1013.6
20260904151142 82 340 4.0 13.0 0.00 0.05 0.00 73 1013.6
20260904150857 82 327 3.0 9.0 0.00 0.05 0.00 73 1013.4
20260904150128 81 315 4.0 11.0 0.00 0.05 0.00 73 1013.4
20260904145628 81 0 4.0 11.0 0.00 0.05 0.00 75 1013.5